Location: Newark
(41.6500°N, 71.4833°W)
Time: 01:08:40
(UTC+00:00)

deb Explorer IX - Pass Details

Date: 29 January 2020
Orbit: 549 x 1099 km, 38.8° (Epoch: 27 February)

Event Time Altitude Azimuth Distance (km) Brightness Sun altitude
Rises 02:51:03 0° 260° (W) 3,694 ? -54.0°
Enters shadow 02:51:32 - 260° (W) 3,525 ? -54.1°
Reaches altitude 10° 02:53:38 10° 258° (WSW) 2,806 - -54.4°
Maximum altitude 03:00:32 71° 177° (S) 1,137 - -55.5°
Drops below altitude 10° 03:07:50 10° 95° (E) 2,947 - -56.6°
Sets 03:10:35 0° 93° (E) 3,890 - -57.0°
